{"data":{"norad_id":64464,"intl_designator":"2025-130AC","name":"STARLINK-34429","alt_names":[],"object_type":"PAYLOAD","status":"ACTIVE","operator":null,"country":"US","launch_date":"2025-06-18","launch_site_code":"AFETR","launch_vehicle":null,"mission":null,"orbit_class":"UNKNOWN","rcs_meters":null,"size_class":null,"mass_kg":null,"dimensions":null,"purposes":["comms"],"wikipedia_slug":null,"has_3d_model":false,"image_url":null,"decayed_at":null,"tle_current":{"epoch":"2026-09-20T23:33:03.928608Z","epoch_age_seconds":89989,"freshness":"FRESH","line1":"1 64464U 25130AC  26263.98129547  .00009595  00000+0  29470-3 0  9991","line2":"2 64464  53.1618 257.1274 0000486 351.0591   9.0403 15.34404238 70669","mean_motion":15.34404238,"eccentricity":4.86e-5,"inclination_deg":53.1618,"raan_deg":257.1274,"arg_perigee_deg":351.0591,"mean_anomaly_deg":9.0403,"bstar":0.0002947,"rev_number":7066,"period_min":93.847498875326,"perigee_km":462.35817978348,"apogee_km":463.02310823048,"semimajor_km":6840.827644007,"source":"CELESTRAK","updated_at":"2026-09-21T09:00:35.357450Z"}}}